Вернуться в каталог

CZ-6A DEB

АктивенPO
NORAD 61338·DEBRIS·🇨🇳 China

Запущен Aug 6, 2024 с Taiyuan Satellite Launch Center

Loading…

Ближайшие Пролёты (ближайшие 24 часа)

TLE

СвежийSource: Space-Track

Эпоха: Sep 14, 2026, 11:20 UTC

1 61338U 24140VB  26257.47249038  .00003026  00000-0  14238-2 0  9992
2 61338  88.9896 264.6686 0082028 287.9385  71.2874 14.18022188104774

Отслеживайте CZ-6A DEB в реальном времени с AllMySat

Download on the App Store